Location: Aiyekoto
(8.4333°N, 4.3667°E)
Time: 23:32:31
(UTC+00:00)

Centaur D-1A AC-31 - Pass Details

Date: 03 October 2020
Orbit: 553 x 36388 km, 27.2° (Epoch: 24 October)

Event Time Altitude Azimuth Distance (km) Brightness Sun altitude
Rises 10:34:10 0° 243° (WSW) 10,004 7.1 70.9°
Reaches altitude 10° 10:38:57 10° 243° (WSW) 10,339 7.3 71.8°
Maximum altitude 12:16:28 61° 271° (W) 25,389 10.8 73.1°
Enters shadow 20:40:07 85° 238° (WSW) 2,879 4.1 -47.3°
